This is the latest recevied weather packets stored in our database for station/object OK2ILA-10. If no packets are shown the sender has not sent any weather packets the latest 10 day(s).
| Time | Temp. | Humidity | Pressure | Rain* | Wind** | Luminosity | Snow |
|---|---|---|---|---|---|---|---|
| 1777871794 | 16.11° C | 49% | 1016.4 hPa | - | - | - | - |
| 1777871197 | 16.67° C | 47% | 1016.6 hPa | - | - | - | - |
| 1777871194 | 16.67° C | 47% | 1016.6 hPa | - | - | - | - |
| 1777870594 | 17.22° C | 48% | 1016.6 hPa | - | - | - | - |
| 1777869997 | 15° C | 50% | 1016.6 hPa | - | - | - | - |
| 1777869993 | 15° C | 50% | 1016.6 hPa | - | - | - | - |
| 1777869397 | 15.56° C | 49% | 1016.7 hPa | - | - | - | - |
| 1777869393 | 15.56° C | 49% | 1016.7 hPa | - | - | - | - |
| 1777868797 | 16.11° C | 48% | 1016.8 hPa | - | - | - | - |
| 1777868793 | 16.11° C | 48% | 1016.8 hPa | - | - | - | - |
| 1777868196 | 17.78° C | 47% | 1016.8 hPa | - | - | - | - |
| 1777868193 | 17.78° C | 47% | 1016.8 hPa | - | - | - | - |
| 1777867596 | 17.22° C | 47% | 1016.7 hPa | - | - | - | - |
| 1777867592 | 17.22° C | 47% | 1016.7 hPa | - | - | - | - |
| 1777866996 | 15° C | 49% | 1016.8 hPa | - | - | - | - |
| 1777866992 | 15° C | 49% | 1016.8 hPa | - | - | - | - |
| 1777866396 | 13.33° C | 51% | 1016.7 hPa | - | - | - | - |
| 1777866392 | 13.33° C | 51% | 1016.7 hPa | - | - | - | - |
| 1777865795 | 13.33° C | 51% | 1016.6 hPa | - | - | - | - |
| 1777865792 | 13.33° C | 51% | 1016.6 hPa | - | - | - | - |
| 1777864595 | 13.33° C | 50% | 1016.7 hPa | - | - | - | - |
| 1777863991 | 13.33° C | 50% | 1016.7 hPa | - | - | - | - |
| 1777863395 | 13.33° C | 50% | 1016.7 hPa | - | - | - | - |
| 1777847189 | 13.89° C | 48% | 1017.1 hPa | - | - | - | - |
| 1777847185 | 13.89° C | 48% | 1017.1 hPa | - | - | - | - |
* Rain since midnight (hover to see other rain measurements)
** Current wind speed in m/s (hover to see current wind gust speed)